CW4114 Weather Reports


Display with metric or nautical units.
time (UTC)temp
F
wind
direction
speed
MPH
gust
MPH
rain 1hr
in
rain 24hr
in
rain mn
in
humidity
%
barometer
mb
20211128085031 27 254 4.0 5.0 0.00 0.00 0.00 94 1007.3
20211128084534 27 279 2.0 5.0 0.00 0.00 0.00 94 1007.2
20211128084032 27 272 3.0 5.0 0.00 0.00 0.00 94 1007.3
20211128083533 27 269 2.0 3.0 0.00 0.00 0.00 94 1007.3
20211128083032 27 281 2.0 3.0 0.00 0.00 0.00 94 1007.4
20211128082532 27 271 1.0 2.0 0.00 0.00 0.00 94 1007.3
20211128082033 27 227 0.0 2.0 0.00 0.00 0.00 94 1007.3
20211128081532 27 227 0.0 1.0 0.00 0.00 0.00 94 1007.4
20211128081034 27 226 0.0 1.0 0.00 0.00 0.00 94 1007.4
20211128080532 27 226 0.0 1.0 0.00 0.00 0.00 94 1007.5
20211128080039 27 230 0.0 2.0 0.00 0.00 0.00 94 1007.4
20211128075522 27 262 0.0 2.0 0.00 0.00 0.00 94 1007.5
20211128075023 27 258 0.0 3.0 0.00 0.00 0.00 94 1007.6
20211128074520 27 255 1.0 3.0 0.00 0.00 0.00 94 1007.6
20211128074020 27 245 2.0 3.0 0.00 0.00 0.00 94 1007.7
20211128073521 27 237 1.0 3.0 0.00 0.00 0.00 94 1007.6
20211128073018 27 226 1.0 3.0 0.00 0.00 0.00 94 1007.7
20211128072517 27 262 2.0 3.0 0.00 0.00 0.00 94 1007.7
20211128072018 27 254 2.0 3.0 0.00 0.00 0.00 94 1007.8
20211128071517 27 264 2.0 4.0 0.00 0.00 0.00 93 1007.9
20211128071012 27 267 2.0 4.0 0.00 0.00 0.00 93 1008.0
20211128070511 27 272 2.0 4.0 0.00 0.00 0.00 93 1008.0
20211128070011 27 265 3.0 4.0 0.00 0.00 0.00 94 1008.0
20211128065510 27 250 2.0 4.0 0.00 0.00 0.00 94 1008.0
20211128065011 27 252 2.0 4.0 0.00 0.00 0.00 94 1008.1
20211128064510 27 278 2.0 4.0 0.00 0.00 0.00 93 1008.2
20211128064010 27 267 1.0 4.0 0.00 0.00 0.00 93 1008.2
20211128063511 27 274 3.0 4.0 0.00 0.00 0.00 93 1008.3
20211128063007 27 268 2.0 4.0 0.00 0.00 0.00 93 1008.3
20211128062506 27 236 2.0 5.0 0.00 0.00 0.00 93 1008.3
20211128062004 27 283 3.0 5.0 0.00 0.00 0.00 93 1008.4
20211128061504 27 276 2.0 3.0 0.00 0.00 0.00 93 1008.4
20211128061005 27 283 1.0 3.0 0.00 0.00 0.00 93 1008.5
20211128060505 27 274 0.0 3.0 0.00 0.00 0.00 93 1008.5
20211128060007 27 262 2.0 3.0 0.00 0.00 0.00 93 1008.6
20211128055503 27 259 2.0 3.0 0.00 0.00 0.00 93 1008.6
20211128055005 27 259 2.0 3.0 0.00 0.00 0.00 93 1008.7
20211128054504 27 257 1.0 3.0 0.00 0.00 0.00 93 1008.7
20211128054004 27 278 2.0 3.0 0.00 0.00 0.00 93 1008.7
20211128053503 27 265 2.0 3.0 0.00 0.00 0.00 93 1008.8
20211128053004 27 274 2.0 3.0 0.00 0.00 0.00 92 1008.7
20211128052506 27 261 1.0 3.0 0.00 0.00 0.00 92 1008.8
20211128052005 27 237 0.0 4.0 0.00 0.00 0.00 92 1008.8
20211128051504 27 250 2.0 4.0 0.00 0.00 0.00 92 1008.9
20211128051003 27 264 1.0 2.0 0.00 0.00 0.00 92 1008.9
20211128050503 27 269 1.0 2.0 0.00 0.00 0.00 92 1008.8
20211128050003 27 248 2.0 2.0 0.00 0.00 0.00 92 1008.8
20211128045502 27 243 1.0 4.0 0.00 0.00 0.00 92 1008.8
20211128045003 27 236 2.0 4.0 0.00 0.00 0.00 92 1008.8
20211128044502 27 243 2.0 4.0 0.00 0.00 0.00 92 1008.9
20211128044002 27 271 2.0 6.0 0.00 0.00 0.00 92 1009.0
20211128043500 27 261 2.0 6.0 0.00 0.00 0.00 91 1009.1
20211128043003 27 261 2.0 6.0 0.00 0.00 0.00 91 1009.1
20211128042502 27 267 3.0 6.0 0.00 0.00 0.00 91 1009.0
20211128041959 27 267 4.0 5.0 0.00 0.00 0.00 91 1009.0
20211128041459 27 240 2.0 5.0 0.00 0.00 0.00 91 1009.2
20211128041001 27 255 2.0 5.0 0.00 0.00 0.00 91 1009.1
20211128040500 27 247 2.0 5.0 0.00 0.00 0.00 91 1009.1
20211128040001 27 255 2.0 5.0 0.00 0.00 0.00 91 1009.2
20211128035458 27 257 3.0 5.0 0.00 0.00 0.00 91 1009.4
20211128034957 27 231 2.0 5.0 0.00 0.00 0.00 91 1009.2
20211128034457 27 271 3.0 5.0 0.00 0.00 0.00 91 1009.2
20211128033958 27 236 3.0 6.0 0.00 0.00 0.00 91 1009.4
20211128033455 27 247 3.0 6.0 0.00 0.00 0.00 91 1009.4
20211128032955 27 262 3.0 5.0 0.00 0.00 0.00 91 1009.4
20211128032454 27 240 3.0 5.0 0.00 0.00 0.00 91 1009.4
20211128031953 27 247 2.0 5.0 0.00 0.00 0.00 90 1009.5
20211128031455 27 262 3.0 5.0 0.00 0.00 0.00 91 1009.5
20211128030955 27 248 2.0 4.0 0.00 0.00 0.00 91 1009.5
20211128030455 27 216 3.0 4.0 0.00 0.00 0.00 90 1009.5
20211128025950 27 244 1.0 5.0 0.00 0.00 0.00 90 1009.6
20211128025451 27 230 2.0 5.0 0.00 0.00 0.00 90 1009.5
20211128024949 27 247 3.0 5.0 0.00 0.00 0.00 90 1009.5
20211128024450 27 258 3.0 5.0 0.00 0.00 0.00 90 1009.6
20211128023950 27 244 3.0 5.0 0.00 0.00 0.00 90 1009.6
20211128023449 27 238 3.0 5.0 0.00 0.00 0.00 90 1009.7
20211128022949 27 226 2.0 4.0 0.00 0.00 0.00 90 1009.7
20211128022448 27 209 3.0 6.0 0.00 0.00 0.00 90 1009.8
20211128021948 27 227 2.0 6.0 0.00 0.00 0.00 90 1009.8
20211128021446 27 227 3.0 5.0 0.00 0.00 0.00 90 1009.9
20211128020942 27 214 2.0 5.0 0.00 0.00 0.00 89 1009.8
20211128020442 27 267 2.0 6.0 0.00 0.00 0.00 89 1009.9
20211128015943 27 252 3.0 6.0 0.00 0.00 0.00 89 1010.0
20211128015441 27 231 3.0 5.0 0.00 0.00 0.00 89 1010.0
20211128014941 27 241 2.0 5.0 0.00 0.00 0.00 89 1010.0
20211128014440 27 233 3.0 6.0 0.00 0.00 0.00 89 1010.2
20211128013940 27 261 4.0 6.0 0.00 0.00 0.00 88 1010.3
20211128013443 27 238 4.0 5.0 0.00 0.00 0.00 88 1010.3
20211128012942 27 248 3.0 5.0 0.00 0.00 0.00 88 1010.3
20211128012441 27 216 3.0 5.0 0.00 0.00 0.00 87 1010.3
20211128011940 27 264 3.0 5.0 0.00 0.00 0.00 87 1010.4
20211128011441 27 267 3.0 5.0 0.00 0.00 0.00 87 1010.4
20211128010936 27 262 2.0 5.0 0.00 0.00 0.00 86 1010.4
20211128010437 27 252 2.0 4.0 0.00 0.00 0.00 86 1010.3
20211128005937 27 227 2.0 4.0 0.00 0.00 0.00 86 1010.3
20211128005435 27 237 1.0 4.0 0.00 0.00 0.00 85 1010.3
20211128004937 27 240 2.0 6.0 0.00 0.00 0.00 85 1010.4
20211128004436 28 259 3.0 6.0 0.00 0.00 0.00 84 1010.5
20211128003943 28 247 4.0 6.0 0.00 0.00 0.00 83 1010.4
20211128003435 28 231 3.0 5.0 0.00 0.00 0.00 83 1010.5
20211128002936 28 237 4.0 7.0 0.00 0.00 0.00 82 1010.6
20211128002436 28 234 3.0 7.0 0.00 0.00 0.00 82 1010.5
20211128001935 28 213 2.0 4.0 0.00 0.00 0.00 82 1010.5
20211128001433 28 227 2.0 3.0 0.00 0.00 0.00 82 1010.5
20211128000936 28 212 1.0 3.0 0.00 0.00 0.00 82 1010.5
20211128000432 28 227 1.0 3.0 0.00 0.00 0.00 82 1010.5
20211127235930 28 214 1.0 3.0 0.00 0.00 0.00 82 1010.4
20211127235431 28 214 1.0 3.0 0.00 0.00 0.00 82 1010.4
20211127234931 28 244 0.0 2.0 0.00 0.00 0.00 82 1010.5
20211127234429 28 254 0.0 2.0 0.00 0.00 0.00 82 1010.4
20211127233930 29 217 0.0 2.0 0.00 0.00 0.00 82 1010.4
20211127233428 29 217 1.0 2.0 0.00 0.00 0.00 82 1010.5
20211127232927 29 217 1.0 2.0 0.00 0.00 0.00 82 1010.5
20211127232430 29 227 1.0 2.0 0.00 0.00 0.00 82 1010.5
20211127231926 29 166 0.0 2.0 0.00 0.00 0.00 82 1010.4
20211127231427 29 166 0.0 2.0 0.00 0.00 0.00 82 1010.5
20211127230927 29 171 0.0 0.0 0.00 0.00 0.00 82 1010.5
20211127230428 29 171 0.0 1.0 0.00 0.00 0.00 81 1010.5
20211127225927 29 171 0.0 1.0 0.00 0.00 0.00 81 1010.4
20211127225426 29 171 0.0 1.0 0.00 0.00 0.00 81 1010.5
20211127224927 29 171 0.0 1.0 0.00 0.00 0.00 81 1010.5
20211127224426 29 171 0.0 0.0 0.00 0.00 0.00 80 1010.5
20211127223923 29 171 0.0 2.0 0.00 0.00 0.00 80 1010.5
20211127223425 29 171 0.0 2.0 0.00 0.00 0.00 80 1010.4
20211127222926 29 164 1.0 2.0 0.00 0.00 0.00 80 1010.4
20211127222426 29 158 0.0 2.0 0.00 0.00 0.00 79 1010.4
20211127221926 29 158 0.0 2.0 0.00 0.00 0.00 79 1010.4
20211127221425 29 158 1.0 3.0 0.00 0.00 0.00 79 1010.4
20211127220924 29 162 1.0 3.0 0.00 0.00 0.00 79 1010.4
20211127220427 29 155 1.0 2.0 0.00 0.00 0.00 79 1010.3
20211127215925 29 166 1.0 2.0 0.00 0.00 0.00 78 1010.3
20211127215424 29 147 1.0 3.0 0.00 0.00 0.00 78 1010.3
20211127214925 29 149 1.0 3.0 0.00 0.00 0.00 78 1010.3
20211127214423 29 140 2.0 3.0 0.00 0.00 0.00 77 1010.3
20211127213925 29 131 1.0 4.0 0.00 0.00 0.00 77 1010.3
20211127213423 29 141 2.0 4.0 0.00 0.00 0.00 77 1010.3
20211127212923 29 165 1.0 3.0 0.00 0.00 0.00 77 1010.4
20211127212425 29 147 2.0 3.0 0.00 0.00 0.00 76 1010.5
20211127211925 29 131 2.0 4.0 0.00 0.00 0.00 76 1010.5
20211127211423 30 157 2.0 4.0 0.00 0.00 0.00 76 1010.6
20211127210922 30 137 1.0 4.0 0.00 0.00 0.00 76 1010.6
20211127210424 30 144 2.0 6.0 0.00 0.00 0.00 76 1010.6
20211127205922 30 181 2.0 6.0 0.00 0.00 0.00 76 1010.7
20211127205422 30 179 1.0 7.0 0.00 0.00 0.00 76 1010.7
20211127204921 30 147 2.0 7.0 0.00 0.00 0.00 75 1010.7
20211127204421 30 161 2.0 6.0 0.00 0.00 0.00 75 1010.8
20211127203922 30 149 2.0 7.0 0.00 0.00 0.00 76 1010.8
20211127203422 30 117 5.0 7.0 0.00 0.00 0.00 75 1010.8
20211127202921 30 171 2.0 6.0 0.00 0.00 0.00 75 1010.8
20211127202422 30 123 3.0 6.0 0.00 0.00 0.00 75 1010.9
20211127201920 30 130 4.0 6.0 0.00 0.00 0.00 75 1010.9
20211127201421 30 155 3.0 5.0 0.00 0.00 0.00 75 1011.0
20211127200922 30 148 2.0 7.0 0.00 0.00 0.00 75 1011.0
20211127200421 30 123 2.0 7.0 0.00 0.00 0.00 75 1011.1
20211127195920 30 142 3.0 6.0 0.00 0.00 0.00 75 1011.1
20211127195420 30 203 3.0 6.0 0.00 0.00 0.00 76 1011.2
20211127194919 30 197 1.0 4.0 0.00 0.00 0.00 75 1011.2
20211127194416 30 135 1.0 7.0 0.00 0.00 0.00 74 1011.3
20211127193915 30 145 2.0 7.0 0.00 0.00 0.00 74 1011.3
20211127193415 30 175 2.0 5.0 0.00 0.00 0.00 74 1011.3
20211127192913 30 178 2.0 5.0 0.00 0.00 0.00 75 1011.4
20211127192410 30 162 2.0 6.0 0.00 0.00 0.00 75 1011.4
20211127191912 30 220 3.0 6.0 0.00 0.00 0.00 74 1011.5
20211127191409 30 166 5.0 7.0 0.00 0.00 0.00 74 1011.5
20211127190910 30 179 4.0 7.0 0.00 0.00 0.00 75 1011.5
20211127190409 30 188 3.0 7.0 0.00 0.00 0.00 75 1011.5
20211127185906 29 148 3.0 7.0 0.00 0.00 0.00 76 1011.6
20211127185407 29 179 3.0 5.0 0.00 0.00 0.00 76 1011.6
20211127184905 29 121 2.0 6.0 0.00 0.00 0.00 76 1011.8
20211127184406 29 204 3.0 7.0 0.00 0.00 0.00 76 1011.8
20211127183906 29 162 4.0 7.0 0.00 0.00 0.00 76 1011.8
20211127183407 30 183 4.0 7.0 0.00 0.00 0.00 76 1011.9
20211127182903 30 189 4.0 7.0 0.00 0.00 0.00 77 1011.9
20211127182403 30 238 3.0 7.0 0.00 0.00 0.00 77 1012.0
20211127181905 29 165 2.0 7.0 0.00 0.00 0.00 77 1012.0
20211127181404 30 217 2.0 7.0 0.00 0.00 0.00 76 1012.0
20211127180905 30 228 3.0 7.0 0.00 0.00 0.00 76 1012.1
20211127180404 30 213 2.0 5.0 0.00 0.00 0.00 76 1012.1
20211127175905 30 175 2.0 6.0 0.00 0.00 0.00 75 1012.2
20211127175412 30 224 4.0 10.0 0.00 0.00 0.00 76 1012.2
20211127174903 30 199 4.0 10.0 0.00 0.00 0.00 76 1012.2
20211127174402 30 233 4.0 6.0 0.00 0.00 0.00 76 1012.3
20211127173903 30 185 3.0 7.0 0.00 0.00 0.00 76 1012.3
20211127173402 30 240 4.0 7.0 0.00 0.00 0.00 76 1012.3
20211127172902 30 283 3.0 6.0 0.00 0.00 0.00 76 1012.3
20211127172403 30 257 2.0 6.0 0.00 0.00 0.00 77 1012.4
20211127171902 29 268 4.0 7.0 0.00 0.00 0.00 76 1012.5
20211127171406 29 219 4.0 7.0 0.00 0.00 0.00 76 1012.5
20211127170902 29 202 4.0 6.0 0.00 0.00 0.00 76 1012.5
20211127170401 29 221 3.0 6.0 0.00 0.00 0.00 77 1012.6
20211127165903 29 199 4.0 6.0 0.00 0.00 0.00 77 1012.8
20211127165402 29 247 4.0 7.0 0.00 0.00 0.00 77 1012.9
20211127164903 29 237 3.0 7.0 0.00 0.00 0.00 77 1012.9
20211127164402 29 175 4.0 7.0 0.00 0.00 0.00 78 1013.1
20211127163902 29 173 4.0 6.0 0.00 0.00 0.00 78 1013.2
20211127163403 29 236 3.0 6.0 0.00 0.00 0.00 79 1013.4
20211127162903 29 243 4.0 6.0 0.00 0.00 0.00 79 1013.4
20211127162403 29 220 3.0 6.0 0.00 0.00 0.00 80 1013.5
20211127161900 28 279 4.0 6.0 0.00 0.00 0.00 80 1013.6
20211127161359 28 244 3.0 6.0 0.00 0.00 0.00 80 1013.6
20211127160900 28 223 3.0 5.0 0.00 0.00 0.00 81 1013.6
20211127160400 28 274 2.0 4.0 0.00 0.00 0.00 82 1013.7
20211127155854 27 267 2.0 5.0 0.00 0.00 0.00 82 1013.8
20211127155355 27 279 3.0 5.0 0.00 0.00 0.00 82 1014.0
20211127154856 27 251 2.0 4.0 0.00 0.00 0.00 83 1014.0
20211127154357 26 236 2.0 4.0 0.00 0.00 0.00 83 1014.0
20211127153855 26 202 2.0 5.0 0.00 0.00 0.00 83 1014.0
20211127153355 26 251 2.0 5.0 0.00 0.00 0.00 83 1014.0
20211127152853 26 272 2.0 5.0 0.00 0.00 0.00 83 1014.0
20211127152350 26 259 3.0 7.0 0.00 0.00 0.00 83 1014.1
20211127151850 25 236 3.0 7.0 0.00 0.00 0.00 83 1014.1
20211127151351 25 252 4.0 6.0 0.00 0.00 0.00 83 1014.2
20211127150847 25 240 3.0 7.0 0.00 0.00 0.00 83 1014.1
20211127150348 25 261 4.0 7.0 0.00 0.00 0.00 83 1014.2
20211127145845 25 228 2.0 7.0 0.00 0.00 0.00 83 1014.2
20211127145343 25 226 4.0 7.0 0.00 0.00 0.00 83 1014.1
20211127144842 25 228 3.0 7.0 0.00 0.00 0.00 83 1014.0
20211127144341 25 224 4.0 6.0 0.00 0.00 0.00 83 1014.1
20211127143839 24 252 4.0 6.0 0.00 0.00 0.00 84 1014.0
20211127143338 24 228 3.0 7.0 0.00 0.00 0.00 84 1014.1
20211127142838 24 251 4.0 7.0 0.00 0.00 0.00 84 1014.1
20211127142341 24 226 5.0 10.0 0.00 0.00 0.00 84 1014.2
20211127141838 23 252 5.0 10.0 0.00 0.00 0.00 85 1014.1
20211127141336 23 241 3.0 6.0 0.00 0.00 0.00 85 1014.1
20211127140839 23 258 3.0 7.0 0.00 0.00 0.00 85 1014.1
20211127140337 22 236 4.0 7.0 0.00 0.00 0.00 86 1014.1
20211127135837 22 245 4.0 7.0 0.00 0.00 0.00 86 1014.1
20211127135334 22 238 3.0 7.0 0.00 0.00 0.00 86 1014.1
20211127134840 21 247 3.0 6.0 0.00 0.00 0.00 86 1014.0
20211127134336 21 213 4.0 7.0 0.00 0.00 0.00 86 1013.9
20211127133834 21 210 3.0 7.0 0.00 0.00 0.00 86 1013.8
20211127133333 21 233 5.0 7.0 0.00 0.00 0.00 86 1013.9
20211127132833 21 216 4.0 6.0 0.00 0.00 0.00 86 1013.9
20211127132335 20 209 3.0 5.0 0.00 0.00 0.00 86 1013.9
20211127131831 20 212 3.0 6.0 0.00 0.00 0.00 86 1014.0
20211127131331 20 234 4.0 6.0 0.00 0.00 0.00 86 1014.2
20211127130831 20 226 4.0 6.0 0.00 0.00 0.00 86 1014.0
20211127130330 21 252 3.0 5.0 0.00 0.00 0.00 86 1014.1
20211127125830 21 243 3.0 5.0 0.00 0.00 0.00 86 1014.0
20211127125331 21 238 3.0 4.0 0.00 0.00 0.00 86 1013.9
20211127124829 21 231 2.0 5.0 0.00 0.00 0.00 86 1013.9
20211127124333 21 240 2.0 5.0 0.00 0.00 0.00 87 1014.0
20211127123827 20 250 3.0 5.0 0.00 0.00 0.00 87 1014.2
20211127123322 20 250 3.0 5.0 0.00 0.00 0.00 86 1014.2
20211127122823 20 245 3.0 5.0 0.00 0.00 0.00 86 1014.1
20211127122321 20 251 4.0 5.0 0.00 0.00 0.00 86 1014.0
20211127121822 20 252 3.0 5.0 0.00 0.00 0.00 86 1014.0
20211127121323 20 259 3.0 5.0 0.00 0.00 0.00 86 1014.1
20211127120822 20 251 3.0 5.0 0.00 0.00 0.00 86 1014.1
20211127120322 20 245 3.0 6.0 0.00 0.00 0.00 86 1014.2
20211127115820 20 252 3.0 6.0 0.00 0.00 0.00 86 1014.1
20211127115319 20 257 2.0 6.0 0.00 0.00 0.00 86 1014.2
20211127114818 20 268 4.0 6.0 0.00 0.00 0.00 86 1014.2
20211127114315 20 238 3.0 6.0 0.00 0.00 0.00 86 1014.2
20211127113814 20 275 4.0 5.0 0.00 0.00 0.00 86 1014.2
20211127113315 20 245 3.0 5.0 0.00 0.00 0.00 86 1014.3
20211127112815 20 240 3.0 5.0 0.00 0.00 0.00 86 1014.4
20211127112313 20 262 3.0 5.0 0.00 0.00 0.00 86 1014.3
20211127111814 20 247 3.0 5.0 0.00 0.00 0.00 86 1014.4
20211127111315 20 247 3.0 5.0 0.00 0.00 0.00 86 1014.3
20211127110818 20 255 3.0 5.0 0.00 0.00 0.00 87 1014.4
20211127110317 20 230 3.0 4.0 0.00 0.00 0.00 86 1014.3
20211127105814 20 248 3.0 4.0 0.00 0.00 0.00 87 1014.3
20211127105311 20 223 3.0 5.0 0.00 0.00 0.00 87 1014.3
20211127104812 19 258 3.0 5.0 0.00 0.00 0.00 87 1014.4
20211127104310 19 244 3.0 6.0 0.00 0.00 0.00 87 1014.4
20211127103810 19 250 2.0 7.0 0.00 0.00 0.00 87 1014.5
20211127103308 19 230 3.0 7.0 0.00 0.00 0.00 87 1014.5
20211127102813 19 251 5.0 7.0 0.00 0.00 0.00 88 1014.5
20211127102308 19 259 3.0 6.0 0.00 0.00 0.00 88 1014.5
20211127101809 19 247 4.0 6.0 0.00 0.00 0.00 89 1014.5
20211127101309 18 247 3.0 6.0 0.00 0.00 0.00 89 1014.5
20211127100809 18 236 3.0 4.0 0.00 0.00 0.00 89 1014.5
20211127100306 17 241 2.0 4.0 0.00 0.00 0.00 88 1014.5
20211127095808 17 276 2.0 2.0 0.00 0.00 0.00 88 1014.4
20211127095308 17 243 1.0 2.0 0.00 0.00 0.00 87 1014.4
20211127094808 17 248 2.0 3.0 0.00 0.00 0.00 87 1014.4
20211127094304 17 233 1.0 4.0 0.00 0.00 0.00 87 1014.5
20211127093801 17 247 2.0 4.0 0.00 0.00 0.00 87 1014.5
20211127093302 17 251 3.0 4.0 0.00 0.00 0.00 86 1014.5
20211127092804 17 241 2.0 5.0 0.00 0.00 0.00 86 1014.6
20211127092305 17 259 3.0 6.0 0.00 0.00 0.00 86 1014.5
20211127091802 17 247 3.0 6.0 0.00 0.00 0.00 86 1014.4
20211127091303 17 257 3.0 7.0 0.00 0.00 0.00 86 1014.6
20211127090804 17 247 4.0 7.0 0.00 0.00 0.00 86 1014.6
20211127090303 17 264 4.0 6.0 0.00 0.00 0.00 86 1014.8
20211127085804 17 254 4.0 7.0 0.00 0.00 0.00 86 1014.8
20211127085305 18 251 4.0 7.0 0.00 0.00 0.00 86 1014.9